Time,TemperatureF,DewpointF,PressureIn,WindDirection,WindDirectionDegrees,WindSpeedMPH,WindSpeedGustMPH,Humidity,HourlyPrecipIn,Conditions,Clouds,dailyrainin,SolarRadiationWatts/m^2,SoftwareType,DateUTC
2013-12-05 00:02:00,-7.0,-12.0,-100.00,ENE,77,0.0,1.0,77,-99.99,,,0.00,0.000000,,2013-12-05 07:02:00,
2013-12-05 00:42:00,-8.0,-14.0,-100.00,SE,125,1.0,2.0,76,-99.99,,,0.00,0.000000,,2013-12-05 07:42:00,
2013-12-05 00:52:00,-8.0,-14.0,-100.00,SE,125,1.0,2.0,76,-99.99,,,0.00,0.000000,,2013-12-05 07:52:00,
2013-12-05 01:02:00,-8.0,-14.0,-100.00,SE,125,1.0,2.0,76,-99.99,,,0.00,0.000000,,2013-12-05 08:02:00,
2013-12-05 01:42:00,-8.0,-14.0,-100.00,NE,45,0.0,2.0,76,0.00,,,0.00,0.000000,,2013-12-05 08:42:00,
2013-12-05 01:53:00,-8.0,-14.0,-100.00,NE,45,0.0,2.0,76,0.00,,,0.00,0.000000,,2013-12-05 08:53:00,
2013-12-05 02:02:00,-8.0,-14.0,-100.00,NE,45,0.0,2.0,76,0.00,,,0.00,0.000000,,2013-12-05 09:02:00,
2013-12-05 02:43:00,-10.0,-16.0,-100.00,North,355,2.0,2.0,75,0.00,,,0.00,0.000000,,2013-12-05 09:43:00,
2013-12-05 02:54:00,-10.0,-16.0,-100.00,North,355,2.0,2.0,75,0.00,,,0.00,0.000000,,2013-12-05 09:54:00,
2013-12-05 03:03:00,-10.0,-16.0,-100.00,North,355,2.0,2.0,75,0.00,,,0.00,0.000000,,2013-12-05 10:03:00,
2013-12-05 03:43:00,-10.0,-16.0,-100.00,NNE,19,2.0,2.0,75,0.00,,,0.00,0.000000,,2013-12-05 10:43:00,
2013-12-05 03:53:00,-10.0,-16.0,-100.00,NNE,19,2.0,2.0,75,0.00,,,0.00,0.000000,,2013-12-05 10:53:00,
2013-12-05 04:02:00,-10.0,-16.0,-100.00,NNE,19,2.0,2.0,75,0.00,,,0.00,0.000000,,2013-12-05 11:02:00,
2013-12-05 04:42:00,-10.0,-16.0,-100.00,North,353,1.0,2.0,75,0.00,,,0.00,0.000000,,2013-12-05 11:42:00,
2013-12-05 04:53:00,-10.0,-16.0,-100.00,North,353,1.0,2.0,75,0.00,,,0.00,0.000000,,2013-12-05 11:53:00,
2013-12-05 05:02:00,-10.0,-16.0,-100.00,North,353,1.0,2.0,75,0.00,,,0.00,0.000000,,2013-12-05 12:02:00,
2013-12-05 05:42:00,-10.0,-15.0,-100.00,North,359,1.0,2.0,76,0.00,,,0.00,0.000000,,2013-12-05 12:42:00,
2013-12-05 05:52:00,-10.0,-15.0,-100.00,North,359,1.0,2.0,76,0.00,,,0.00,0.000000,,2013-12-05 12:52:00,
2013-12-05 06:02:00,-10.0,-15.0,-100.00,North,359,1.0,2.0,76,0.00,,,0.00,0.000000,,2013-12-05 13:02:00,
2013-12-05 06:42:00,-10.0,-16.0,-100.00,North,353,0.0,2.0,75,0.00,,,0.00,0.000000,,2013-12-05 13:42:00,
2013-12-05 06:52:00,-10.0,-16.0,-100.00,North,353,0.0,2.0,75,0.00,,,0.00,0.000000,,2013-12-05 13:52:00,
2013-12-05 07:02:00,-10.0,-16.0,-100.00,North,353,0.0,2.0,75,0.00,,,0.00,0.000000,,2013-12-05 14:02:00,
2013-12-05 07:42:00,-10.0,-16.0,-100.00,NNW,339,1.0,1.0,74,0.00,,,-99.99,0.000000,,2013-12-05 14:42:00,
2013-12-05 07:52:00,-10.0,-16.0,-100.00,NNW,339,1.0,1.0,74,0.00,,,-99.99,0.000000,,2013-12-05 14:52:00,
2013-12-05 08:02:00,-10.0,-16.0,-100.00,NNW,339,1.0,1.0,74,0.00,,,-99.99,0.000000,,2013-12-05 15:02:00,
2013-12-05 08:43:00,-9.0,-15.0,-100.00,North,355,0.0,0.0,75,0.00,,,0.00,2.000000,,2013-12-05 15:43:00,
2013-12-05 12:42:00,7.0,0.0,-100.00,SSW,194,4.0,5.0,72,-99.99,,,0.00,505.000000,,2013-12-05 19:42:00,
2013-12-05 13:42:00,7.0,1.0,-100.00,SSW,207,2.0,6.0,77,-99.99,,,0.00,484.000000,,2013-12-05 20:42:00,
2013-12-05 13:52:00,7.0,1.0,-100.00,SSW,207,2.0,6.0,77,-99.99,,,0.00,484.000000,,2013-12-05 20:52:00,
2013-12-05 14:02:00,7.0,1.0,-100.00,SSW,207,2.0,6.0,77,-99.99,,,0.00,484.000000,,2013-12-05 21:02:00,
2013-12-05 14:44:00,4.0,-2.0,-100.00,SSW,209,2.0,4.0,77,0.00,,,-99.99,293.000000,,2013-12-05 21:44:00,
2013-12-05 14:53:00,4.0,-2.0,-100.00,SSW,209,2.0,4.0,77,0.00,,,-99.99,293.000000,,2013-12-05 21:53:00,
2013-12-05 15:03:00,4.0,-2.0,-100.00,SSW,209,2.0,4.0,77,0.00,,,-99.99,293.000000,,2013-12-05 22:03:00,
2013-12-05 15:42:00,2.0,-3.0,-100.00,SW,218,3.0,6.0,78,0.00,,,0.00,143.000000,,2013-12-05 22:42:00,
2013-12-05 15:52:00,2.0,-3.0,-100.00,SW,218,3.0,6.0,78,0.00,,,0.00,143.000000,,2013-12-05 22:52:00,
2013-12-05 16:02:00,2.0,-3.0,-100.00,SW,218,3.0,6.0,78,0.00,,,0.00,143.000000,,2013-12-05 23:02:00,
2013-12-05 16:43:00,2.0,-3.0,-100.00,SSW,212,2.0,4.0,79,0.00,,,0.00,110.000000,,2013-12-05 23:43:00,
2013-12-05 16:53:00,2.0,-3.0,-100.00,SSW,212,2.0,4.0,79,0.00,,,0.00,110.000000,,2013-12-05 23:53:00,
2013-12-05 17:02:00,2.0,-3.0,-100.00,SSW,212,2.0,4.0,79,0.00,,,0.00,110.000000,,2013-12-06 00:02:00,
2013-12-05 17:42:00,-1.0,-5.0,-100.00,SE,134,0.0,2.0,81,0.00,,,0.00,48.000000,,2013-12-06 00:42:00,
2013-12-05 17:52:00,-1.0,-5.0,-100.00,SE,134,0.0,2.0,81,0.00,,,0.00,48.000000,,2013-12-06 00:52:00,
2013-12-05 18:01:00,-1.0,-5.0,-100.00,SE,134,0.0,2.0,81,0.00,,,0.00,48.000000,,2013-12-06 01:01:00,
2013-12-05 18:42:00,-2.0,-6.0,-100.00,ESE,119,0.0,2.0,81,0.00,,,0.00,0.000000,,2013-12-06 01:42:00,
2013-12-05 18:52:00,-2.0,-6.0,-100.00,ESE,119,0.0,2.0,81,0.00,,,0.00,0.000000,,2013-12-06 01:52:00,
2013-12-05 19:01:00,-2.0,-6.0,-100.00,ESE,119,0.0,2.0,81,0.00,,,0.00,0.000000,,2013-12-06 02:01:00,
2013-12-05 19:42:00,-3.0,-8.0,-100.00,North,8,3.0,3.0,80,0.00,,,0.00,0.000000,,2013-12-06 02:42:00,
2013-12-05 19:52:00,-3.0,-8.0,-100.00,North,8,3.0,3.0,80,0.00,,,0.00,0.000000,,2013-12-06 02:52:00,
2013-12-05 20:02:00,-3.0,-8.0,-100.00,North,8,3.0,3.0,80,0.00,,,0.00,0.000000,,2013-12-06 03:02:00,
2013-12-05 20:43:00,-4.0,-9.0,-100.00,NNE,12,4.0,4.0,78,-99.99,,,0.00,0.000000,,2013-12-06 03:43:00,
2013-12-05 20:53:00,-4.0,-9.0,-100.00,NNE,12,4.0,4.0,78,-99.99,,,0.00,0.000000,,2013-12-06 03:53:00,
2013-12-05 21:03:00,-4.0,-9.0,-100.00,NNE,12,4.0,4.0,78,-99.99,,,0.00,0.000000,,2013-12-06 04:03:00,
2013-12-05 21:43:00,-6.0,-12.0,-100.00,NNE,13,4.0,5.0,76,-99.99,,,0.00,0.000000,,2013-12-06 04:43:00,
2013-12-05 21:53:00,-6.0,-12.0,-100.00,NNE,13,4.0,5.0,76,-99.99,,,0.00,0.000000,,2013-12-06 04:53:00,
2013-12-05 22:02:00,-6.0,-12.0,-100.00,NNE,13,4.0,5.0,76,-99.99,,,0.00,0.000000,,2013-12-06 05:02:00,
2013-12-05 22:43:00,-7.0,-13.0,-100.00,NNE,14,3.0,5.0,76,0.00,,,0.00,0.000000,,2013-12-06 05:43:00,
2013-12-05 22:53:00,-7.0,-13.0,-100.00,NNE,14,3.0,5.0,76,0.00,,,0.00,0.000000,,2013-12-06 05:53:00,
2013-12-05 23:02:00,-7.0,-13.0,-100.00,NNE,14,3.0,5.0,76,0.00,,,0.00,0.000000,,2013-12-06 06:02:00,
2013-12-05 23:42:00,-7.0,-13.0,-100.00,NNE,20,3.0,6.0,75,0.00,,,0.00,0.000000,,2013-12-06 06:42:00,
2013-12-05 23:52:00,-7.0,-13.0,-100.00,NNE,20,3.0,6.0,75,0.00,,,0.00,0.000000,,2013-12-06 06:52:00,